SCP
0 0 0 0 0 0 0 0 0 0 0 0 0 0 0 0 0 0 0 0 0 0 0 0 0 0 0 0 0 0 0 0 0 0 0 0 0 0 0 0 0 0 0
0 0 0 0 0 0 0 0 0 0 0 0 0 0 0 0 0 0 0 0 0 0 0 0 0 0 0 0 0 0 0 0 0 0 0 0 0 0 0 0 0 0 0
0 0 0 0 0 0 0 0 0 0 0 0 0 0 0 0 0 0 0 0 0 0 0 0 0 0 0 0 0 0 0 0 0 0 0 0 0 0 0 0 0 0 0
0 0 0 0 0 0 0 0 0 0 0 0 0 0 0 0 0 0 0 0 0 0 0 0 0 0 0 0 0 0 0 0 0 0 0 0 0 0 0 0 0 0 0
0 0 0 0 0 0 0 0 0 0 0 0 0 0 0 0 0 0 0 0 0 0 0 0 0 0 0 0 0 0 0 0 0 0 0 0 0 0 0 0 0 0 0
0 0 0 0 0 0 0 0 0 0 0 0 0 0 0 0 0 0 0 0 0 0 0 0 0 0 0 0 0 0 0 0 0 0 0 0 0 0 0 0 0 0 0
-0 0 -0 0 0 0 0 0 0 0 0 0 0 0 0 0 0 0 0 0 0 0 0 0 0 0 0 0 0 0 0 0 0 0 0 0 0 0 0 0 0 0 0
-0 -0 0 0 0 0 0 0 0 0 0 0 0 0 0 0 0 0 0 0 0 0 0 0 0 0 0 0 0 0 0 0 0 0 0 0 0 0 0 0 0 0 0
-0 0 0 0 0 0 0 0 0 0 0 0 0 0 0 0 0 0 0 0 0 0 0 0 0 0 0 0 0 0 0 0 0 0 0 0 0 0 0 0 0 0 0
0 0 0 0 0 0 0 0 0 0 0 0 0 0 0 0 0 0 0 0 0 0 0 0 0 0 0 0 0 0 0 0 0 0 0 0 0 0 0 0 0 0 0
0 0 0 0 0 0 0 0 0 0 0 0 0 0 0 0 0 0 0 0 0 0 0 0 0 0 0 0 0 0 0 0 0 0 0 0 0 0 0 0 0 0 0
0 0 0 0 0 0 0 0 0 0 0 0 0 0 0 0 0 0 0 0 0 0 0 0 0 0 0 0 0 0 0 0 0 0 0 0 0 0 0 0 0 0 0
0 0 0 0 0 0 0 0 0 0 0 0 0 0 0 0 0 -0 -0 -0 0 0 0 0 0 0 0 0 0 0 0 0 0 0 0 0 0 0 0 0 0 0 0
0 0 0 0 0 0 0 0 0 0 0 0 0 0 0 0 -0 -0 0 0 0 0 0 0 0 0 0 0 0 0 0 0 0 0 0 0 0 0 0 0 0 0 0
0 0 0 0 0 0 0 0 0 0 -0 -0 -0 -0 -0 -0 -0 0 0 0 0 0 0 0 0 0 0 0 0 0 0 0 0 0 0 0 0 0 0 0 0 0 0
-0 -0 -0 -0 -0 -0 0 0 -0 -0 -0 -0 -0 0 0 0 0 0 0 0 0 0 0 0 0 0 0 0 0 0 0 0 0 0 0 0 0 0 0 0 0 0 0
0 -0 -0 -0 -0 -0 -0 -0 0 0 -0 -0 -0 -0 0 0 0 0 0 0 0 0 0 0 0 0 0 0 0 0 0 0 0 0 0 0 0 0 0 0 0 0 0
-0 -0 -0 -0 -0 -0 -0 -0 -0 0 -0 0 -0 0 0 0 0 0 0 0 0 0 0 0 0 0 0 0 0 0 0 0 0 0 0 0 0 0 0 0 0 0 0
0 0 -0 -0 -0 -0 0 0 0 0 0 0 0 0 0 0 0 0 0 0 0 0 0 0 0 0 0 0 0 0 0 0 0 0 0 0 0 0 0 0 0 0 0
0 0 0 0 0 0 0 0 0 0 0 0 0 0 0 0 0 0 0 0 0 0 0 0 0 0 0 0 0 0 0 0 0 0 0 0 0 0 0 0 0 0 0
0 0 0 0 0 0 0 0 0 0 0 0 0 0 0 0 0 0 0 0 0 0 0 0 0 0 0 0 0 0 0 0 0 0 0 0 0 0 0 0 0 0 0
0 0 0 0 0 0 0 0 0 0 0 0 0 0 0 0 0 0 0 0 0 0 0 0 0 0 0 0 0 0 0 0 0 0 0 0 0 0 0 0 0 0 0
0 0 0 0 0 0 0 0 0 0 0 0 0 0 0 0 0 0 0 0 0 0 0 0 0 0 0 0 0 0 0 0 0 0 0 0 0 0 0 0 0 0 0
0 0 0 0 0 0 0 0 0 0 0 0 0 0 0 0 0 0 0 0 0 0 0 0 0 0 0 0 0 0 0 0 0 0 0 0 0 0 0 0 0 0 0
0 0 0 0 0 0 0 0 0 0 0 0 0 0 0 0 0 0 0 0 0 0 0 0 0 0 0 0 0 0 0 0 0 0 0 0 0 0 0 0 0 0 0
0 0 0 0 0 0 0 0 0 0 0 0 0 0 0 0 0 0 0 0 0 0 0 0 0 0 0 0 0 0 0 0 0 0 0 0 0 0 0 0 0 0 0
Wind_Speed_500mb
79 77 78 85 87 79 85 86 77 91 91 96 99 132 136 133 125 108 107 107 100 97 89 75 78 72 60 65 61 51 43 31 33 43 37 27 21 22 24 30 34 36 38
75 73 78 77 81 88 82 89 82 94 94 101 97 114 147 133 120 118 117 100 107 92 80 80 80 66 71 65 59 46 35 40 37 33 27 20 22 22 28 34 37 38 39
69 69 76 78 79 87 84 78 84 96 97 99 103 88 125 140 124 116 115 104 101 94 92 84 77 82 71 63 52 39 45 38 38 28 20 23 22 26 32 35 38 40 40
57 60 58 67 79 80 84 79 83 93 94 100 99 86 112 125 113 110 110 108 98 94 87 80 81 64 59 51 47 46 38 38 30 23 22 24 26 28 33 37 41 40 43
41 41 43 55 76 80 76 87 82 92 86 94 93 98 104 103 109 120 110 104 100 88 81 77 63 52 45 45 39 38 41 36 27 25 25 28 28 28 32 37 42 44 49
24 22 13 44 61 70 76 85 86 84 92 97 97 96 101 100 112 119 109 105 85 88 82 64 50 49 49 41 37 38 35 29 25 25 27 29 24 28 32 37 44 50 57
8 17 23 43 60 63 74 84 77 79 83 82 79 85 97 100 107 111 104 86 82 74 60 56 58 55 48 42 42 38 33 30 26 26 30 24 28 27 35 41 47 50 54
12 31 47 57 67 80 85 85 89 82 75 74 82 86 88 92 95 81 72 71 64 55 56 54 51 49 45 42 41 36 33 30 28 30 29 26 28 31 37 43 47 50 52
11 28 42 57 74 78 78 75 77 80 73 72 76 78 86 77 71 67 68 61 55 56 53 45 46 42 40 42 38 36 35 32 31 29 28 29 31 35 39 43 43 46 53
22 25 34 45 55 61 69 71 71 71 71 79 72 68 78 81 69 65 59 60 58 51 52 48 44 42 41 39 36 36 36 29 31 33 32 34 37 43 44 43 41 48 49
28 32 37 44 54 58 62 61 64 70 77 73 77 76 72 69 63 59 54 49 50 50 47 45 43 41 39 38 36 37 33 32 35 36 38 39 44 49 51 50 48 51 54
35 40 44 48 55 54 59 66 63 71 78 79 77 70 63 63 53 49 51 44 39 34 34 33 32 35 37 35 37 35 35 37 40 42 46 48 51 53 51 52 56 58 57
45 49 50 52 54 57 68 75 79 77 78 76 74 70 61 57 56 48 41 37 33 30 27 28 30 33 34 34 36 37 39 43 46 52 57 58 57 58 58 61 61 63 63
61 60 59 63 67 69 71 75 81 79 76 74 74 71 63 54 46 39 35 31 27 24 24 27 28 29 32 36 39 41 43 47 53 60 64 63 64 65 67 67 69 66 69
67 69 71 73 74 77 76 73 73 69 61 59 52 46 42 36 31 26 22 18 17 21 23 23 26 31 35 37 40 44 49 55 61 63 66 68 69 71 71 68 68 67 73
76 76 77 76 74 71 69 65 53 46 41 38 37 32 33 30 26 22 20 18 14 14 17 20 21 24 31 36 42 49 54 59 62 64 66 69 70 68 66 65 62 66 72
46 48 48 48 48 47 45 47 49 42 38 35 31 27 24 20 18 15 12 11 14 18 17 19 26 32 37 43 48 54 57 58 57 57 56 55 56 59 61 65 66 66 71
36 38 39 41 40 41 40 39 35 32 31 28 24 21 19 16 15 14 16 17 18 20 22 28 33 37 40 43 47 50 50 47 47 47 50 52 55 56 60 65 68 70 73
24 28 30 31 31 29 28 27 25 23 21 18 17 15 15 15 18 19 21 20 22 26 30 34 36 38 43 48 47 44 46 48 50 52 55 60 60 60 64 66 69 70 71
18 19 20 20 20 19 18 17 16 16 14 14 14 15 17 18 19 21 22 23 25 29 32 35 40 44 46 45 46 49 53 54 55 57 58 58 59 59 63 64 62 63 64
16 15 14 15 14 14 13 12 12 12 12 14 15 14 13 13 14 17 20 23 25 29 32 35 36 37 39 38 41 44 46 46 45 47 49 51 52 55 55 56 57 57 57
17 17 17 16 15 14 13 12 10 10 12 12 10 9 10 10 11 13 15 18 21 24 25 26 28 29 31 34 37 38 40 42 45 48 48 50 52 53 53 53 52 51 50
13 12 11 11 11 11 11 11 11 10 9 7 5 6 8 9 9 10 12 15 17 18 20 21 23 25 29 32 36 39 42 44 46 50 52 52 51 50 48 48 47 46 45
12 12 12 12 11 11 11 10 9 6 4 4 4 3 4 6 9 10 9 11 13 14 16 19 23 26 29 32 35 39 41 43 46 49 51 51 50 48 46 45 43 42 42
16 15 15 14 13 12 11 10 8 7 6 5 5 6 4 2 3 6 8 10 12 15 18 22 27 30 33 35 38 40 41 44 45 46 47 47 46 45 45 44 43 42 41
19 18 17 16 15 13 12 12 12 11 9 8 6 4 2 1 1 3 7 11 16 20 24 27 31 34 37 39 40 42 44 44 46 45 44 43 43 41 41 43 41 40 36
Wind_Direction_500mb
269 270 263 257 250 241 237 229 224 223 219 224 224 221 212 205 206 208 207 212 217 213 210 219 212 214 216 197 195 209 218 245 234 223 214 213 230 253 273 285 291 295 295
285 279 269 259 247 241 231 227 215 224 219 221 223 210 208 204 206 206 214 204 212 209 218 209 209 207 197 200 211 219 245 242 221 209 205 223 246 262 274 284 289 294 292
290 278 270 258 244 234 227 217 212 218 216 216 220 218 206 205 203 207 208 210 206 213 213 204 203 196 201 203 210 228 238 207 204 208 215 235 248 266 276 284 287 287 292
296 284 267 256 233 222 210 202 211 210 213 212 217 223 210 195 208 213 205 205 206 208 203 198 198 208 203 204 226 229 199 205 204 215 230 244 257 267 276 282 283 291 292
307 281 273 241 220 211 205 202 206 202 208 211 212 212 215 204 205 207 202 203 204 197 193 191 209 211 210 213 216 191 202 207 211 227 241 255 264 273 283 284 292 295 291
290 284 216 182 184 186 188 189 199 198 202 204 205 207 211 218 203 202 204 200 192 194 189 196 202 191 210 186 190 201 210 218 224 239 253 265 277 280 282 289 295 293 292
248 177 173 172 176 173 179 187 191 199 201 200 206 211 209 210 203 198 199 189 187 190 192 194 188 202 188 193 199 204 213 223 233 244 256 270 278 287 290 297 292 289 290
199 171 166 174 175 177 179 185 189 192 191 197 196 198 201 194 198 187 178 187 181 188 191 189 195 188 190 198 206 212 221 230 237 246 258 268 280 292 294 290 288 289 289
153 171 172 173 172 173 174 176 175 180 181 183 187 187 190 181 174 175 176 178 184 177 183 188 183 193 197 206 211 221 228 234 241 251 264 273 283 290 292 290 294 289 291
107 138 156 167 164 162 164 167 167 173 174 174 168 177 174 169 168 167 171 171 171 178 173 182 191 197 205 214 220 230 237 240 246 253 263 274 283 286 287 292 290 289 290
109 125 139 141 151 153 153 155 158 158 157 160 163 162 160 160 158 159 166 172 169 172 186 190 196 202 211 221 228 238 247 244 249 261 268 278 284 284 286 287 289 286 285
103 114 122 132 135 139 143 145 150 151 148 149 147 148 150 148 153 159 159 166 174 184 191 197 204 213 223 230 239 244 247 255 261 268 275 281 287 287 288 287 286 284 284
104 110 117 123 127 133 136 140 141 142 139 138 137 140 146 148 155 162 166 170 178 189 195 205 215 225 232 238 247 254 259 265 273 277 282 285 288 287 283 282 284 284 281
105 106 112 116 121 122 123 126 130 133 132 133 138 145 151 157 163 163 167 175 183 193 205 217 226 236 246 251 253 262 271 276 279 281 285 289 288 288 286 284 285 286 284
99 105 109 111 112 114 114 117 120 123 125 131 136 139 143 148 150 157 162 168 184 199 217 233 246 254 260 267 273 277 279 280 282 285 286 287 287 286 285 285 285 287 285
95 101 107 111 115 117 121 125 124 123 127 129 129 132 138 143 147 154 163 175 196 221 235 247 262 279 285 287 284 282 281 283 285 286 284 285 287 288 288 288 288 291 291
98 103 105 107 110 113 117 122 125 127 128 131 132 132 138 143 153 164 179 203 228 248 269 284 285 284 286 285 285 285 285 286 286 284 286 289 292 293 293 294 296 298 298
108 110 113 116 120 123 125 126 126 129 135 141 148 156 164 175 191 209 226 241 258 274 281 277 279 283 283 285 286 287 289 294 298 296 292 292 294 295 296 298 301 303 304
116 119 123 125 128 130 133 136 140 146 152 159 170 185 201 215 227 237 247 256 262 265 269 276 283 286 287 290 293 295 296 296 294 295 294 296 299 298 296 297 300 302 303
134 139 142 142 142 142 144 148 153 161 171 185 200 212 221 229 239 248 257 262 263 268 271 278 285 288 290 290 291 291 290 288 286 285 285 287 288 287 290 296 300 300 299
156 153 153 157 162 166 173 183 194 207 218 223 228 232 240 245 252 257 262 269 277 284 287 289 289 291 292 294 296 295 295 296 297 300 303 304 305 307 307 305 303 299 298
174 175 179 181 184 187 191 197 202 210 215 222 235 248 256 255 263 274 280 283 282 285 288 291 293 295 298 302 303 306 309 312 313 314 315 315 315 314 312 310 307 305 304
176 175 180 188 188 189 192 193 194 197 201 209 235 276 297 299 293 288 291 293 293 295 299 303 306 310 314 316 319 321 324 326 327 325 323 322 322 321 320 318 315 311 307
179 182 183 182 181 185 186 187 186 193 199 217 237 250 261 271 274 281 293 303 308 313 320 325 323 322 326 330 333 334 334 333 332 331 330 329 329 328 326 324 321 317 314
189 183 180 178 179 177 173 168 168 169 170 175 198 216 227 261 325 321 317 322 334 339 338 336 338 339 340 341 340 338 336 335 336 336 334 333 331 329 327 326 322 320 321
177 176 176 175 172 168 167 169 171 172 171 169 161 155 157 128 21 356 2 1 355 350 346 345 344 343 342 340 338 337 337 338 339 343 338 337 339 337 335 335 333 329 330
Wind_Speed_850mb
79 77 78 85 87 79 85 86 77 91 91 96 99 132 136 133 125 108 107 107 100 97 89 75 78 72 60 65 61 51 43 31 33 43 37 27 21 22 24 30 34 36 38
75 73 78 77 81 88 82 89 82 94 94 101 97 114 147 133 120 118 117 100 107 92 80 80 80 66 71 65 59 46 35 40 37 33 27 20 22 22 28 34 37 38 39
69 69 76 78 79 87 84 78 84 96 97 99 103 88 125 140 124 116 115 104 101 94 92 84 77 82 71 63 52 39 45 38 38 28 20 23 22 26 32 35 38 40 40
57 60 58 67 79 80 84 79 83 93 94 100 99 86 112 125 113 110 110 108 98 94 87 80 81 64 59 51 47 46 38 38 30 23 22 24 26 28 33 37 41 40 43
41 41 43 55 76 80 76 87 82 92 86 94 93 98 104 103 109 120 110 104 100 88 81 77 63 52 45 45 39 38 41 36 27 25 25 28 28 28 32 37 42 44 49
24 22 13 44 61 70 76 85 86 84 92 97 97 96 101 100 112 119 109 105 85 88 82 64 50 49 49 41 37 38 35 29 25 25 27 29 24 28 32 37 44 50 57
8 17 23 43 60 63 74 84 77 79 83 82 79 85 97 100 107 111 104 86 82 74 60 56 58 55 48 42 42 38 33 30 26 26 30 24 28 27 35 41 47 50 54
12 31 47 57 67 80 85 85 89 82 75 74 82 86 88 92 95 81 72 71 64 55 56 54 51 49 45 42 41 36 33 30 28 30 29 26 28 31 37 43 47 50 52
11 28 42 57 74 78 78 75 77 80 73 72 76 78 86 77 71 67 68 61 55 56 53 45 46 42 40 42 38 36 35 32 31 29 28 29 31 35 39 43 43 46 53
22 25 34 45 55 61 69 71 71 71 71 79 72 68 78 81 69 65 59 60 58 51 52 48 44 42 41 39 36 36 36 29 31 33 32 34 37 43 44 43 41 48 49
28 32 37 44 54 58 62 61 64 70 77 73 77 76 72 69 63 59 54 49 50 50 47 45 43 41 39 38 36 37 33 32 35 36 38 39 44 49 51 50 48 51 54
35 40 44 48 55 54 59 66 63 71 78 79 77 70 63 63 53 49 51 44 39 34 34 33 32 35 37 35 37 35 35 37 40 42 46 48 51 53 51 52 56 58 57
45 49 50 52 54 57 68 75 79 77 78 76 74 70 61 57 56 48 41 37 33 30 27 28 30 33 34 34 36 37 39 43 46 52 57 58 57 58 58 61 61 63 63
61 60 59 63 67 69 71 75 81 79 76 74 74 71 63 54 46 39 35 31 27 24 24 27 28 29 32 36 39 41 43 47 53 60 64 63 64 65 67 67 69 66 69
67 69 71 73 74 77 76 73 73 69 61 59 52 46 42 36 31 26 22 18 17 21 23 23 26 31 35 37 40 44 49 55 61 63 66 68 69 71 71 68 68 67 73
76 76 77 76 74 71 69 65 53 46 41 38 37 32 33 30 26 22 20 18 14 14 17 20 21 24 31 36 42 49 54 59 62 64 66 69 70 68 66 65 62 66 72
46 48 48 48 48 47 45 47 49 42 38 35 31 27 24 20 18 15 12 11 14 18 17 19 26 32 37 43 48 54 57 58 57 57 56 55 56 59 61 65 66 66 71
36 38 39 41 40 41 40 39 35 32 31 28 24 21 19 16 15 14 16 17 18 20 22 28 33 37 40 43 47 50 50 47 47 47 50 52 55 56 60 65 68 70 73
24 28 30 31 31 29 28 27 25 23 21 18 17 15 15 15 18 19 21 20 22 26 30 34 36 38 43 48 47 44 46 48 50 52 55 60 60 60 64 66 69 70 71
18 19 20 20 20 19 18 17 16 16 14 14 14 15 17 18 19 21 22 23 25 29 32 35 40 44 46 45 46 49 53 54 55 57 58 58 59 59 63 64 62 63 64
16 15 14 15 14 14 13 12 12 12 12 14 15 14 13 13 14 17 20 23 25 29 32 35 36 37 39 38 41 44 46 46 45 47 49 51 52 55 55 56 57 57 57
17 17 17 16 15 14 13 12 10 10 12 12 10 9 10 10 11 13 15 18 21 24 25 26 28 29 31 34 37 38 40 42 45 48 48 50 52 53 53 53 52 51 50
13 12 11 11 11 11 11 11 11 10 9 7 5 6 8 9 9 10 12 15 17 18 20 21 23 25 29 32 36 39 42 44 46 50 52 52 51 50 48 48 47 46 45
12 12 12 12 11 11 11 10 9 6 4 4 4 3 4 6 9 10 9 11 13 14 16 19 23 26 29 32 35 39 41 43 46 49 51 51 50 48 46 45 43 42 42
16 15 15 14 13 12 11 10 8 7 6 5 5 6 4 2 3 6 8 10 12 15 18 22 27 30 33 35 38 40 41 44 45 46 47 47 46 45 45 44 43 42 41
19 18 17 16 15 13 12 12 12 11 9 8 6 4 2 1 1 3 7 11 16 20 24 27 31 34 37 39 40 42 44 44 46 45 44 43 43 41 41 43 41 40 36
Wind_Direction_850mb
269 270 263 257 250 241 237 229 224 223 219 224 224 221 212 205 206 208 207 212 217 213 210 219 212 214 216 197 195 209 218 245 234 223 214 213 230 253 273 285 291 295 295
285 279 269 259 247 241 231 227 215 224 219 221 223 210 208 204 206 206 214 204 212 209 218 209 209 207 197 200 211 219 245 242 221 209 205 223 246 262 274 284 289 294 292
290 278 270 258 244 234 227 217 212 218 216 216 220 218 206 205 203 207 208 210 206 213 213 204 203 196 201 203 210 228 238 207 204 208 215 235 248 266 276 284 287 287 292
296 284 267 256 233 222 210 202 211 210 213 212 217 223 210 195 208 213 205 205 206 208 203 198 198 208 203 204 226 229 199 205 204 215 230 244 257 267 276 282 283 291 292
307 281 273 241 220 211 205 202 206 202 208 211 212 212 215 204 205 207 202 203 204 197 193 191 209 211 210 213 216 191 202 207 211 227 241 255 264 273 283 284 292 295 291
290 284 216 182 184 186 188 189 199 198 202 204 205 207 211 218 203 202 204 200 192 194 189 196 202 191 210 186 190 201 210 218 224 239 253 265 277 280 282 289 295 293 292
248 177 173 172 176 173 179 187 191 199 201 200 206 211 209 210 203 198 199 189 187 190 192 194 188 202 188 193 199 204 213 223 233 244 256 270 278 287 290 297 292 289 290
199 171 166 174 175 177 179 185 189 192 191 197 196 198 201 194 198 187 178 187 181 188 191 189 195 188 190 198 206 212 221 230 237 246 258 268 280 292 294 290 288 289 289
153 171 172 173 172 173 174 176 175 180 181 183 187 187 190 181 174 175 176 178 184 177 183 188 183 193 197 206 211 221 228 234 241 251 264 273 283 290 292 290 294 289 291
107 138 156 167 164 162 164 167 167 173 174 174 168 177 174 169 168 167 171 171 171 178 173 182 191 197 205 214 220 230 237 240 246 253 263 274 283 286 287 292 290 289 290
109 125 139 141 151 153 153 155 158 158 157 160 163 162 160 160 158 159 166 172 169 172 186 190 196 202 211 221 228 238 247 244 249 261 268 278 284 284 286 287 289 286 285
103 114 122 132 135 139 143 145 150 151 148 149 147 148 150 148 153 159 159 166 174 184 191 197 204 213 223 230 239 244 247 255 261 268 275 281 287 287 288 287 286 284 284
104 110 117 123 127 133 136 140 141 142 139 138 137 140 146 148 155 162 166 170 178 189 195 205 215 225 232 238 247 254 259 265 273 277 282 285 288 287 283 282 284 284 281
105 106 112 116 121 122 123 126 130 133 132 133 138 145 151 157 163 163 167 175 183 193 205 217 226 236 246 251 253 262 271 276 279 281 285 289 288 288 286 284 285 286 284
99 105 109 111 112 114 114 117 120 123 125 131 136 139 143 148 150 157 162 168 184 199 217 233 246 254 260 267 273 277 279 280 282 285 286 287 287 286 285 285 285 287 285
95 101 107 111 115 117 121 125 124 123 127 129 129 132 138 143 147 154 163 175 196 221 235 247 262 279 285 287 284 282 281 283 285 286 284 285 287 288 288 288 288 291 291
98 103 105 107 110 113 117 122 125 127 128 131 132 132 138 143 153 164 179 203 228 248 269 284 285 284 286 285 285 285 285 286 286 284 286 289 292 293 293 294 296 298 298
108 110 113 116 120 123 125 126 126 129 135 141 148 156 164 175 191 209 226 241 258 274 281 277 279 283 283 285 286 287 289 294 298 296 292 292 294 295 296 298 301 303 304
116 119 123 125 128 130 133 136 140 146 152 159 170 185 201 215 227 237 247 256 262 265 269 276 283 286 287 290 293 295 296 296 294 295 294 296 299 298 296 297 300 302 303
134 139 142 142 142 142 144 148 153 161 171 185 200 212 221 229 239 248 257 262 263 268 271 278 285 288 290 290 291 291 290 288 286 285 285 287 288 287 290 296 300 300 299
156 153 153 157 162 166 173 183 194 207 218 223 228 232 240 245 252 257 262 269 277 284 287 289 289 291 292 294 296 295 295 296 297 300 303 304 305 307 307 305 303 299 298
174 175 179 181 184 187 191 197 202 210 215 222 235 248 256 255 263 274 280 283 282 285 288 291 293 295 298 302 303 306 309 312 313 314 315 315 315 314 312 310 307 305 304
176 175 180 188 188 189 192 193 194 197 201 209 235 276 297 299 293 288 291 293 293 295 299 303 306 310 314 316 319 321 324 326 327 325 323 322 322 321 320 318 315 311 307
179 182 183 182 181 185 186 187 186 193 199 217 237 250 261 271 274 281 293 303 308 313 320 325 323 322 326 330 333 334 334 333 332 331 330 329 329 328 326 324 321 317 314
189 183 180 178 179 177 173 168 168 169 170 175 198 216 227 261 325 321 317 322 334 339 338 336 338 339 340 341 340 338 336 335 336 336 334 333 331 329 327 326 322 320 321
177 176 176 175 172 168 167 169 171 172 171 169 161 155 157 128 21 356 2 1 355 350 346 345 344 343 342 340 338 337 337 338 339 343 338 337 339 337 335 335 333 329 330